This demonstration page uses our WeatherBlox Daily Observations layout. Learn more.

40.92945, -100.16068

Hourly Observations for January 25, 2020

Temp ( °F °C ) Dew Point ( °F °C ) Humidity (%) Winds ( mph kmh ) Pressure ( in mb ) Visibility ( mi km ) Precip ( " mm )
12:15 am 00:15 Partly Cloudy 23 -5.1 22 -5.5 97 97 S 5 7 30.18 1022 7 11.26538 0 0
12:35 am 00:35 Mostly Cloudy 24 -4.6 23 -5.1 96 96 Calm 30.16 1021 10 16.0934 0 0
12:55 am 00:55 Mostly Cloudy 23 -4.8 23 -5.2 97 97 S 3 6 30.17 1022 10 16.0934 0 0
1:15 am 01:15 Partly Cloudy 24 -4.7 23 -5.1 97 97 Calm 30.16 1021 7 11.26538 0 0
1:35 am 01:35 Mostly Cloudy 24 -4.5 23 -4.8 98 98 Calm 30.15 1021 7 11.26538 0 0
1:55 am 01:55 Cloudy 25 -4 24 -4.3 98 98 Calm 30.15 1021 10 16.0934 0 0
2:15 am 02:15 Cloudy 26 -3.6 25 -4.1 96 96 Calm 30.13 1020 10 16.0934 0 0
2:35 am 02:35 Cloudy 26 -3.4 25 -4 96 96 Calm 30.13 1020 10 16.0934 0 0
2:55 am 02:55 Cloudy 26 -3.5 25 -4 96 96 Calm 30.12 1020 10 16.0934 0 0
3:15 am 03:15 Cloudy 26 -3.2 25 -3.8 96 96 Calm 30.12 1020 10 16.0934 0 0
3:35 am 03:35 Cloudy 27 -3 26 -3.5 96 96 Calm 30.12 1020 10 16.0934 0 0
3:55 am 03:55 Cloudy 27 -2.9 26 -3.4 96 96 Calm 30.11 1020 10 16.0934 0 0
4:15 am 04:15 Cloudy 27 -2.8 26 -3.3 96 96 Calm 30.11 1019 10 16.0934 0 0
4:35 am 04:35 Cloudy 27 -3 26 -3.4 97 97 SE 3 6 30.1 1019 10 16.0934 0 0
4:55 am 04:55 Mostly Cloudy 26 -3.3 25 -3.7 97 97 SE 3 6 30.1 1019 10 16.0934 0 0
5:15 am 05:15 Partly Cloudy 26 -3.4 25 -4.1 95 95 Calm 30.1 1019 10 16.0934 0 0
5:35 am 05:35 Partly Cloudy 26 -3.6 24 -4.2 96 96 SSE 7 11 30.1 1019 10 16.0934 0 0
5:55 am 05:55 Partly Cloudy 26 -3.6 24 -4.4 94 94 SSE 5 7 30.1 1019 10 16.0934 0 0
6:15 am 06:15 Mostly Cloudy 26 -3.5 24 -4.2 95 95 SSE 5 7 30.1 1019 10 16.0934 0 0
6:35 am 06:35 Cloudy 26 -3.5 25 -4.1 96 96 SE 3 6 30.09 1019 10 16.0934 0 0
6:55 am 06:55 Mostly Cloudy 25 -3.7 24 -4.5 94 94 SE 5 7 30.09 1019 10 16.0934 0 0
7:15 am 07:15 Partly Cloudy 25 -4 24 -4.6 96 96 E 3 6 30.1 1019 10 16.0934 0 0
7:35 am 07:35 Clear 24 -4.2 23 -4.9 95 95 E 3 6 30.1 1019 10 16.0934 0 0
7:55 am 07:55 Clear 24 -4.6 23 -5.1 96 96 NE 3 6 30.11 1020 10 16.0934 0 0
8:15 am 08:15 Sunny 24 -4.7 23 -5.2 96 96 Calm 30.11 1020 10 16.0934 0 0
8:35 am 08:35 Sunny 24 -4.5 23 -5 96 96 Calm 30.11 1020 10 16.0934 0 0
8:55 am 08:55 Sunny 24 -4.2 23 -4.8 96 96 Calm 30.11 1020 10 16.0934 0 0
9:15 am 09:15 Sunny 27 -3 25 -3.9 94 94 W 6 9 30.11 1020 10 16.0934 0 0
9:35 am 09:35 Sunny 28 -2.1 26 -3.2 92 92 W 5 7 30.1 1019 10 16.0934 0 0
9:55 am 09:55 Sunny 29 -1.7 27 -3 91 91 W 8 13 30.09 1019 10 16.0934 0 0
10:15 am 10:15 Sunny 30 -1 27 -2.6 89 89 WSW 6 9 30.09 1019 10 16.0934 0 0
10:35 am 10:35 Sunny 31 -0.5 28 -2.4 87 87 W 5 7 30.08 1019 10 16.0934 0 0
10:55 am 10:55 Sunny 32 0 28 -2.2 85 85 W 3 6 30.09 1019 10 16.0934 0 0
11:15 am 11:15 Partly Cloudy 33 0.7 29 -1.8 84 84 SW 3 6 30.07 1018 10 16.0934 0 0
11:35 am 11:35 Mostly Cloudy 35 1.6 29 -1.6 80 80 Calm 30.06 1018 10 16.0934 0 0
11:55 am 11:55 Cloudy 36 2.4 29 -1.5 76 76 WNW 5 7 30.04 1017 10 16.0934 0 0
12:15 pm 12:15 Partly Cloudy 37 2.9 30 -1.1 75 75 Calm 30.03 1017 10 16.0934 0 0
12:35 pm 12:35 Sunny 38 3.2 30 -1.3 73 73 Calm 30.03 1017 10 16.0934 0 0
12:55 pm 12:55 Sunny 39 3.8 30 -1.1 71 71 WNW 5 7 30.01 1016 10 16.0934 0 0
1:15 pm 13:15 Sunny 40 4.2 31 -0.8 70 70 Calm 30 1016 10 16.0934 0 0
1:35 pm 13:35 Sunny 40 4.6 31 -0.4 70 70 Calm 29.98 1015 10 16.0934 0 0
1:55 pm 13:55 Sunny 42 5.6 32 -0.1 67 67 Calm 29.96 1015 10 16.0934 0 0
2:15 pm 14:15 Sunny 42 5.5 32 0 68 68 Calm 29.96 1015 10 16.0934 0 0
2:35 pm 14:35 Sunny 44 6.6 32 -0.1 63 63 W 3 6 29.94 1014 10 16.0934 0 0
2:55 pm 14:55 Sunny 45 7 32 0 61 61 NW 3 6 29.94 1014 10 16.0934 0 0
3:15 pm 15:15 Sunny 45 7.4 32 0 60 60 Calm 29.94 1014 10 16.0934 0 0
3:35 pm 15:35 Sunny 45 7.3 32 -0.1 60 60 Calm 29.93 1013 10 16.0934 0 0
3:55 pm 15:55 Sunny 47 8.2 32 0.1 57 57 Calm 29.92 1013 10 16.0934 0 0
4:15 pm 16:15 Sunny 46 8 33 0.3 59 59 Calm 29.93 1014 10 16.0934 0 0
4:35 pm 16:35 Sunny 46 8 33 0.3 59 59 Calm 29.93 1014 10 16.0934 0 0
4:55 pm 16:55 Sunny 46 8 32 0.2 58 58 Calm 29.93 1014 10 16.0934 0 0
5:15 pm 17:15 Sunny 45 7.4 34 1 64 64 Calm 29.95 1014 10 16.0934 0 0
5:35 pm 17:35 Sunny 40 4.3 33 0.6 77 77 NE 6 9 29.98 1015 10 16.0934 0 0
5:55 pm 17:55 Clear 40 4.3 33 0.5 77 77 ENE 3 6 29.98 1015 10 16.0934 0 0
6:15 pm 18:15 Clear 40 4.6 33 0.6 76 76 Calm 29.99 1016 10 16.0934 0 0
6:35 pm 18:35 Partly Cloudy 36 2.2 32 -0.2 84 84 Calm 30.03 1017 10 16.0934 0 0
6:55 pm 18:55 Mostly Cloudy 37 2.5 32 0 84 84 Calm 30.02 1017 10 16.0934 0 0
7:15 pm 19:15 Partly Cloudy 33 0.5 31 -0.6 92 92 WSW 3 6 30.04 1017 10 16.0934 0 0
7:35 pm 19:35 Clear 33 0.8 31 -0.5 91 91 WSW 5 7 30.05 1018 10 16.0934 0 0
7:55 pm 19:55 Clear 32 0 30 -1 93 93 WSW 3 6 30.05 1017 10 16.0934 0 0
8:15 pm 20:15 Partly Cloudy 32 -0.1 30 -1.3 92 92 Calm 30.06 1018 10 16.0934 0 0
8:35 pm 20:35 Partly Cloudy 31 -0.5 30 -1.2 95 95 NNW 8 13 30.07 1018 10 16.0934 0 0
8:55 pm 20:55 Clear 32 0 31 -0.8 94 94 NNW 8 13 30.07 1018 10 16.0934 0 0
9:15 pm 21:15 Clear 31 -0.5 30 -1.3 94 94 NW 5 7 30.07 1018 10 16.0934 0 0
9:35 pm 21:35 Partly Cloudy 31 -0.6 29 -1.5 94 94 W 6 9 30.08 1019 10 16.0934 0 0
9:55 pm 21:55 Mostly Cloudy 32 -0.2 30 -0.9 95 95 WNW 6 9 30.09 1019 10 16.0934 0 0
10:15 pm 22:15 Cloudy 32 0.1 31 -0.5 96 96 W 6 9 30.09 1019 10 16.0934 0 0
10:35 pm 22:35 Cloudy 33 0.4 32 -0.2 96 96 W 5 7 30.08 1019 10 16.0934 0 0
10:55 pm 22:55 Cloudy 33 0.5 32 -0.2 95 95 WNW 5 7 30.07 1018 10 16.0934 0 0
11:15 pm 23:15 Cloudy 33 0.3 32 -0.2 96 96 WNW 3 6 30.07 1018 10 16.0934 0 0
11:35 pm 23:35 Cloudy 33 0.5 32 -0.2 95 95 WNW 6 9 30.07 1018 10 16.0934 0 0
11:55 pm 23:55 Cloudy 32 0 31 -0.5 96 96 NW 6 9 30.09 1019 10 16.0934 0 0

Powered by AerisWeather